Lid_Strength_Index
6 6 5 5 5 5 5 4 4 4 4 4 4 3 3 3 3 3 3 3 3 4 4 4 5 5 7 11 12 8 6 7 4 4 7 9 10 10 12 11 9 11 10 9 8 8 8
5 5 6 5 5 4 4 4 4 4 4 3 3 3 3 2 3 3 3 2 2 3 3 4 4 4 8 15 8 8 8 8 9 5 6 8 9 9 11 12 12 10 10 9 9 8 8
6 5 4 4 4 4 3 3 3 3 3 3 3 2 2 2 2 3 3 2 2 2 3 3 3 5 9 12 7 7 8 9 9 9 10 6 7 9 10 11 10 10 12 11 11 10 10
6 5 4 4 4 4 3 3 3 3 3 3 3 3 2 2 2 2 2 2 2 2 2 2 2 5 11 6 5 7 7 8 8 8 9 9 7 7 9 9 11 10 11 13 10 10 10
6 5 4 4 4 3 3 3 3 3 3 3 3 3 2 2 2 2 2 2 2 2 1 1 4 6 10 4 7 6 6 9 8 8 8 7 8 10 11 12 14 13 14 14 12 10 9
6 5 4 4 4 4 3 3 3 3 3 3 3 3 3 2 2 2 1 2 1 1 1 1 3 8 7 9 4 5 6 7 9 9 10 10 10 12 13 14 17 15 14 13 13 10 10
6 5 4 4 4 4 3 3 3 3 3 3 3 3 3 2 1 1 3 6 7 7 6 9 8 8 7 5 3 5 6 7 8 10 13 10 13 15 13 12 12 12 13 13 12 10 11
6 5 5 4 4 3 3 3 3 3 3 3 3 2 2 1 1 1 5 7 7 7 11 7 7 7 5 4 8 7 5 10 10 13 11 12 14 12 11 11 12 12 14 14 12 11 11
6 5 4 4 4 4 3 3 3 3 3 3 2 2 2 1 1 5 6 6 4 4 10 9 6 7 6 5 8 9 7 9 10 12 12 13 12 11 11 12 13 13 14 14 14 12 11
5 5 5 4 4 3 3 3 3 3 3 2 2 2 2 1 5 6 7 5 3 4 12 10 8 6 5 5 9 6 6 8 11 11 11 12 11 12 13 13 12 14 12 12 13 13 15
5 5 4 3 3 3 3 3 3 2 2 2 2 2 2 2 5 7 5 4 3 4 19 9 7 4 5 7 8 8 6 8 12 11 10 12 11 11 12 11 10 12 9 11 11 12 13
5 4 3 3 3 3 3 3 2 2 2 2 2 2 2 4 5 5 4 4 4 12 19 10 7 8 9 7 8 7 9 8 8 9 9 10 7 8 9 9 9 8 10 11 11 13 17
4 4 3 3 3 3 3 3 2 2 2 2 2 2 3 3 7 4 4 6 13 17 9 11 10 9 9 10 9 9 11 12 12 14 13 11 11 8 8 11 9 10 12 17 18 19 17
4 4 3 3 3 3 3 2 2 2 2 2 2 2 4 4 4 4 5 9 16 12 11 9 9 10 12 9 9 10 11 13 10 11 12 15 16 11 9 10 12 12 12 16 20 20 18
4 4 3 3 3 2 2 2 2 1 1 2 2 6 6 5 4 4 8 14 13 11 10 11 10 13 14 9 9 10 11 12 10 9 13 14 14 9 9 8 9 13 14 11 16 15 17
4 4 3 3 3 2 2 2 2 1 1 2 6 8 8 5 3 5 10 13 11 8 8 10 14 12 15 13 13 11 11 9 10 8 9 11 15 10 9 8 9 11 10 16 15 21 22
4 4 3 3 3 2 2 2 1 1 2 2 7 10 7 3 1 6 13 12 10 7 8 11 12 13 13 13 13 12 12 9 8 9 8 10 11 13 10 12 13 13 14 13 14 16 20
4 3 3 3 3 2 2 1 1 1 2 5 8 14 6 2 8 9 11 10 7 9 8 10 9 11 12 12 13 13 13 10 8 8 10 9 11 15 13 9 8 10 12 12 16 18 16
3 3 3 3 3 2 2 1 1 2 3 7 11 10 6 3 12 11 9 9 8 11 10 10 11 11 11 12 14 12 11 8 7 9 10 9 13 17 16 12 10 12 12 11 13 14 17
3 3 3 3 3 2 2 1 1 2 2 7 11 15 11 5 6 9 10 10 11 8 10 8 9 10 11 12 11 13 12 9 7 8 7 8 11 13 16 15 12 14 13 11 13 17 16
3 3 3 3 3 3 2 1 1 1 2 7 9 13 10 14 10 10 9 9 11 11 9 8 10 10 11 13 12 13 11 10 8 8 9 10 14 12 11 11 11 12 12 11 13 12 15
3 3 4 4 3 3 2 2 1 1 3 8 13 12 9 10 9 10 10 11 12 11 10 11 11 9 9 12 12 13 11 11 11 9 10 9 13 12 14 12 11 13 12 12 12 11 12
3 3 3 3 3 3 2 2 1 1 4 9 9 8 9 11 11 11 11 11 11 10 9 8 9 9 10 10 9 9 8 9 9 10 10 10 12 14 16 13 13 16 13 12 11 10 11
3 3 3 3 4 3 2 2 1 1 3 7 8 8 11 14 11 11 11 10 11 10 11 8 7 9 7 6 5 6 8 8 8 8 8 11 12 12 15 14 20 13 10 9 10 9 9
3 3 4 4 3 2 2 2 1 1 2 6 7 7 10 13 10 10 10 10 9 10 9 8 7 6 5 7 10 11 11 11 10 9 9 8 11 14 15 15 13 12 11 11 12 11 9
3 3 4 3 3 3 2 2 2 1 1 4 5 4 7 10 11 9 10 10 11 11 10 8 6 5 6 9 11 14 16 13 13 12 8 9 9 12 14 17 18 12 9 7 8 14 8
3 3 3 3 3 3 2 2 2 1 1 3 5 4 6 10 8 8 9 10 8 9 10 9 8 8 6 11 13 14 14 11 14 14 14 13 13 15 15 16 13 10 8 7 15 13 8
3 3 3 3 3 3 3 2 2 1 1 2 4 3 5 10 9 7 7 8 9 8 11 8 10 8 9 12 12 13 13 12 12 11 13 13 14 15 14 16 17 8 8 12 10 10 9
3 3 3 3 3 3 3 2 2 1 1 1 5 3 3 7 8 5 5 5 5 5 7 8 9 9 8 11 11 10 12 11 12 15 9 14 12 13 12 13 8 8 9 9 9 11 10